Weather History for Macomb, IL

Change the Weather History Date:

Sunday, December 29, 2013

  Actual Average (KBRL) Record (KBRL)
Temperature  
Mean Temperature 21 °F 26 °F  
Max Temperature 37 °F 34 °F 65 °F (1984)
Min Temperature 4 °F 18 °F -15 °F (1917)
Degree Days  
Heating Degree Days 44 39  
Month to date heating degree days 1036  
Since 1 July heating degree days 2109  
Cooling Degree Days 0 0  
Month to date cooling degree days 0  
Year to date cooling degree days 1207  
Moisture  
Dew Point 16 °F    
Average Humidity 84    
Maximum Humidity 98    
Minimum Humidity 70    
Precipitation  
Precipitation 0.00 in 0.06 in 0.33 in (1990)
Month to date precipitation 1.99  
Year to date precipitation 38.38  
Sea Level Pressure  
Sea Level Pressure 30.09 in    
Wind  
Wind Speed 16 mph (NW)    
Max Wind Speed 28 mph    
Max Gust Speed 34 mph    
Visibility 9 miles    
Events Snow    
T = Trace of Precipitation, MM = Missing Value Source: NWS Daily Summary

Daily Weather History Graph

Daily Weather History Graph

Search for Another Location

Airport:

Trip Planner

Search our weather history database for the weather conditions in past years. The results will help you decide how hot, cold, wet, or windy it might be!

Date:

Astronomy

Dec. 29, 2013 Rise Set
Actual Time 7:25 AM CST 4:44 PM CST
Civil Twilight 6:54 AM CST 5:15 PM CST
Nautical Twilight 6:20 AM CST 5:49 PM CST
Astronomical Twilight 5:47 AM CST 6:22 PM CST
Moon 4:09 AM CST (12/29) 2:22 PM CST (12/29)
Length of Visible Light 10h 20m
Length of Day
9h 18m
Waning Crescent, 11% of the Moon is Illuminated
Dec 29
Waning Crescent
Jan 1
New
Jan 7
First Quarter
Jan 15
Full
Jan 23
Last Quarter

Hourly Weather History & Observations

Time (CST) Temp. Windchill Dew Point Humidity Pressure Visibility Wind Dir Wind Speed Gust Speed Precip Events Conditions
12:15 AM 35.8 °F 30.1 °F 29.7 °F 78% 29.87 in 10.0 mi South 6.9 mph - N/A   Clear
12:35 AM 35.8 °F 30.1 °F 29.7 °F 78% 29.86 in 10.0 mi South 6.9 mph - N/A   Clear
12:55 AM 36.7 °F 32.0 °F 29.3 °F 75% 29.86 in 10.0 mi SSW 5.8 mph - N/A   Clear
1:15 AM 37.4 °F 31.4 °F 29.3 °F 73% 29.85 in 10.0 mi SW 8.1 mph - N/A   Clear
1:35 AM 36.9 °F 30.1 °F 29.3 °F 74% 29.85 in 10.0 mi SW 9.2 mph - N/A   Clear
1:55 AM 37.0 °F 31.0 °F 29.7 °F 75% 29.86 in 10.0 mi SW 8.1 mph - N/A   Clear
2:15 AM 36.7 °F 30.5 °F 29.8 °F 76% 29.86 in 10.0 mi SW 8.1 mph - N/A   Clear
2:35 AM 36.1 °F 29.9 °F 30.2 °F 79% 29.86 in 10.0 mi WSW 8.1 mph - N/A   Clear
2:55 AM 37.2 °F 29.1 °F 30.2 °F 76% 29.87 in 10.0 mi West 12.7 mph - N/A   Clear
3:15 AM 35.1 °F 23.3 °F 30.6 °F 84% 29.87 in 10.0 mi NW 23.0 mph 27.6 mph N/A   Clear
3:35 AM 33.1 °F 23.0 °F 31.3 °F 93% 29.88 in 10.0 mi NW 15.0 mph - N/A   Mostly Cloudy
3:55 AM 33.3 °F 22.8 °F 32.0 °F 95% 29.88 in 10.0 mi NW 16.1 mph - N/A   Overcast
4:15 AM 32.5 °F 19.4 °F 32.0 °F 98% 29.89 in 7.0 mi NW 25.3 mph 29.9 mph N/A   Overcast
4:35 AM 32.0 °F 18.9 °F 30.9 °F 96% 29.89 in 7.0 mi NW 24.2 mph 27.6 mph N/A   Overcast
4:55 AM 30.7 °F 19.2 °F 29.1 °F 94% 29.90 in 10.0 mi NW 17.3 mph 28.8 mph N/A   Overcast
5:15 AM 29.7 °F 16.4 °F 27.5 °F 92% 29.91 in 10.0 mi NW 21.9 mph 28.8 mph N/A   Overcast
5:35 AM 28.4 °F 14.7 °F 27.1 °F 95% 29.92 in 10.0 mi NW 21.9 mph 27.6 mph N/A   Overcast
5:55 AM 27.1 °F 12.1 °F 26.1 °F 96% 29.92 in 7.0 mi NW 25.3 mph 31.1 mph N/A   Overcast
6:15 AM 25.7 °F 11.9 °F 24.8 °F 96% 29.93 in 7.0 mi NW 19.6 mph 28.8 mph N/A   Overcast
6:35 AM 25.3 °F 10.3 °F 24.4 °F 96% 29.95 in 5.0 mi NW 23.0 mph 31.1 mph N/A   Overcast
6:55 AM 25.2 °F 11.2 °F 24.3 °F 96% 29.97 in 5.0 mi NW 19.6 mph 28.8 mph N/A   Overcast
7:15 AM 25.0 °F 10.9 °F 24.1 °F 96% 29.97 in 4.0 mi NW 19.6 mph 27.6 mph N/A   Overcast
7:35 AM 24.8 °F 11.1 °F 23.7 °F 96% 29.99 in 4.0 mi NW 18.4 mph 25.3 mph N/A   Overcast
7:55 AM 24.6 °F 9.4 °F 23.4 °F 95% 30.00 in 4.0 mi NW 23.0 mph 31.1 mph N/A   Overcast
8:15 AM 24.4 °F 9.5 °F 23.0 °F 94% 30.01 in 5.0 mi NW 21.9 mph 28.8 mph N/A   Overcast
8:35 AM 23.9 °F 8.4 °F 22.5 °F 94% 30.02 in 7.0 mi NW 23.0 mph 26.5 mph N/A   Overcast
8:55 AM 23.9 °F 8.4 °F 22.3 °F 94% 30.03 in 7.0 mi NW 23.0 mph 31.1 mph N/A   Overcast
9:15 AM 23.9 °F 8.8 °F 21.7 °F 91% 30.03 in 10.0 mi NW 21.9 mph 29.9 mph N/A   Overcast
9:35 AM 23.5 °F 8.0 °F 21.4 °F 91% 30.05 in 7.0 mi NW 23.0 mph 29.9 mph N/A   Overcast
9:55 AM 23.0 °F 6.0 °F 20.8 °F 91% 30.06 in 10.0 mi NW 27.6 mph 32.2 mph N/A   Overcast
10:15 AM 22.8 °F 7.0 °F 20.3 °F 90% 30.07 in 10.0 mi WNW 23.0 mph 33.4 mph N/A   Overcast
10:35 AM 22.1 °F 6.0 °F 19.4 °F 89% 30.08 in 10.0 mi NW 23.0 mph 29.9 mph N/A   Overcast
10:55 AM 21.7 °F 4.9 °F 18.7 °F 88% 30.08 in 10.0 mi NW 25.3 mph 32.2 mph N/A   Overcast
11:15 AM 21.2 °F 4.5 °F 18.1 °F 88% 30.09 in 10.0 mi WNW 24.2 mph 32.2 mph N/A   Overcast
11:35 AM 20.8 °F 3.4 °F 17.4 °F 87% 30.09 in 10.0 mi NW 26.5 mph 34.5 mph N/A   Overcast
11:55 AM 20.8 °F 4.0 °F 17.6 °F 87% 30.09 in 10.0 mi NW 24.2 mph 28.8 mph N/A   Overcast
12:15 PM 21.0 °F 4.3 °F 17.4 °F 86% 30.09 in 10.0 mi NW 24.2 mph 29.9 mph N/A   Overcast
12:35 PM 21.2 °F 4.9 °F 17.2 °F 85% 30.09 in 10.0 mi WNW 23.0 mph 31.1 mph N/A   Overcast
12:55 PM 21.2 °F 4.5 °F 17.1 °F 84% 30.10 in 10.0 mi WNW 24.2 mph 29.9 mph N/A   Overcast
1:15 PM 20.5 °F 3.2 °F 16.0 °F 83% 30.10 in 10.0 mi WNW 25.3 mph 31.1 mph N/A   Overcast
1:35 PM 19.9 °F 3.5 °F 15.3 °F 82% 30.12 in 10.0 mi NW 21.9 mph 28.8 mph N/A   Overcast
1:55 PM 19.0 °F 1.6 °F 14.0 °F 81% 30.13 in 10.0 mi NW 24.2 mph 31.1 mph N/A   Overcast
2:15 PM 19.0 °F 1.6 °F 14.0 °F 81% 30.13 in 10.0 mi NW 24.2 mph 32.2 mph N/A   Overcast
2:35 PM 18.5 °F 2.0 °F 13.6 °F 81% 30.13 in 10.0 mi NW 20.7 mph 32.2 mph N/A   Overcast
2:55 PM 17.6 °F 0.1 °F 12.7 °F 81% 30.15 in 10.0 mi NW 23.0 mph 31.1 mph N/A   Overcast
3:15 PM 17.6 °F 0.9 °F 12.7 °F 81% 30.16 in 10.0 mi NW 20.7 mph 24.2 mph N/A   Overcast
3:35 PM 17.1 °F -0.6 °F 12.2 °F 81% 30.17 in 10.0 mi NW 23.0 mph 27.6 mph N/A   Overcast
3:55 PM 15.8 °F -2.3 °F 11.1 °F 82% 30.19 in 10.0 mi NW 23.0 mph 28.8 mph N/A   Overcast
4:15 PM 15.1 °F -2.9 °F 10.4 °F 82% 30.19 in 10.0 mi NW 21.9 mph 28.8 mph N/A Snow Light Snow
4:35 PM 14.5 °F -2.7 °F 10.0 °F 82% 30.21 in 7.0 mi NW 19.6 mph 25.3 mph N/A Snow Light Snow
4:55 PM 14.0 °F -4.3 °F 9.3 °F 82% 30.22 in 7.0 mi NW 21.9 mph 27.6 mph N/A Snow Light Snow
5:15 PM 13.1 °F -4.6 °F 8.6 °F 82% 30.23 in 7.0 mi NW 19.6 mph - N/A Snow Light Snow
5:35 PM 12.6 °F -4.4 °F 8.1 °F 82% 30.23 in 10.0 mi NW 17.3 mph - N/A   Scattered Clouds
5:55 PM 12.2 °F -4.3 °F 8.1 °F 83% 30.23 in 10.0 mi NW 16.1 mph - N/A Snow Light Snow
6:15 PM 12.0 °F -4.0 °F 7.5 °F 82% 30.24 in 10.0 mi NW 15.0 mph - N/A   Clear
6:35 PM 11.7 °F -4.4 °F 7.5 °F 83% 30.25 in 10.0 mi NW 15.0 mph - N/A   Clear
6:55 PM 11.3 °F -3.6 °F 7.2 °F 83% 30.26 in 10.0 mi NW 12.7 mph - N/A   Clear
7:15 PM 10.8 °F -3.6 °F 6.8 °F 84% 30.26 in 10.0 mi NW 11.5 mph - N/A   Clear
7:35 PM 10.2 °F -7.4 °F 5.0 °F 79% 30.27 in 10.0 mi NW 17.3 mph 20.7 mph N/A   Clear
7:55 PM 10.0 °F -6.5 °F 4.6 °F 79% 30.27 in 10.0 mi NW 15.0 mph - N/A   Clear
8:15 PM 9.5 °F -4.4 °F 4.5 °F 80% 30.28 in 10.0 mi NW 10.4 mph - N/A   Clear
8:35 PM 8.6 °F -8.9 °F 2.3 °F 76% 30.28 in 10.0 mi NNW 16.1 mph 20.7 mph N/A   Clear
8:55 PM 8.4 °F -9.2 °F 1.4 °F 73% 30.28 in 10.0 mi NW 16.1 mph 23.0 mph N/A   Clear
9:15 PM 7.9 °F -9.9 °F 0.9 °F 73% 30.29 in 10.0 mi NW 16.1 mph 21.9 mph N/A   Clear
9:35 PM 7.5 °F -9.1 °F 0.3 °F 72% 30.29 in 10.0 mi NW 13.8 mph - N/A   Clear
9:55 PM 7.2 °F -10.2 °F -0.4 °F 71% 30.30 in 10.0 mi NW 15.0 mph - N/A   Clear
10:15 PM 6.8 °F -10.7 °F -0.4 °F 72% 30.29 in 10.0 mi NW 15.0 mph - N/A   Clear
10:35 PM 5.9 °F -11.2 °F -0.8 °F 74% 30.30 in 10.0 mi NW 13.8 mph - N/A   Clear
10:55 PM 5.7 °F -11.4 °F -2.0 °F 70% 30.30 in 10.0 mi NW 13.8 mph - N/A   Clear
11:15 PM 5.2 °F -11.4 °F -2.6 °F 70% 30.31 in 10.0 mi NW 12.7 mph - N/A   Clear
11:35 PM 5.0 °F -9.1 °F -2.4 °F 72% 30.31 in 10.0 mi NW 9.2 mph - N/A   Clear
11:55 PM 4.8 °F -10.2 °F -2.7 °F 71% 30.32 in 10.0 mi NW 10.4 mph - N/A   Clear